Location: Emmingen-Liptingen
(47.9337°N, 8.8703°E)
Time: 09:02:08
(UTC+00:00)

Daily predictions for brighter satellites

Satellite Brightness Start Highest point End
(mag) Time Altitude Azimuth Time Altitude Azimuth Time Altitude Azimuth
Cosmos 1833 Rocket 3.1 19:47:18 10° NNW 19:52:51 62° WSW 19:58:22 10° SSE
Cosmos 2297 4.4 19:49:14 10° SSE 19:54:16 34° ESE 19:59:21 10° NE
STARLINK-1109 4.0 19:50:50 10° WNW 19:54:53 54° SW 19:58:55 10° SE
Cosmos 1943 Rocket 3.8 19:51:52 10° SE 19:55:00 15° E 19:58:10 10° ENE
STARLINK-1123 4.1 19:53:02 10° WNW 19:57:09 61° NNE 20:01:16 10° ESE
STARLINK-1246 3.6 19:53:56 10° WSW 19:58:05 84° SSE 20:02:15 10° ENE
Cosmos 2082 Rocket 2.3 19:53:48 10° NNW 19:59:34 86° WSW 20:05:16 10° SSE
STARLINK-1091 4.1 19:55:48 10° WNW 19:59:49 50° SW 20:03:50 10° SE
IGS 5A 4.1 19:56:05 10° SE 19:59:59 41° ENE 20:03:55 10° N
Cosmos 1420 Rocket 4.1 19:55:22 10° SSW 20:00:35 84° WNW 20:05:49 10° NNE
Cosmos 1452 Rocket 3.5 19:55:36 10° SSW 20:00:51 71° ESE 20:06:09 10° NNE
Cosmos 332 Rocket 4.0 19:56:23 10° S 20:01:10 55° ESE 20:05:58 10° NNE
BREEZE-M DEB 3.9 19:59:37 10° S 20:01:14 16° SE 20:03:33 10° E
STARLINK-1097 4.0 19:58:03 10° WNW 20:02:11 64° NNE 20:06:18 10° ESE
Intercosmos 24 3.7 19:58:54 10° N 20:02:28 74° E 20:06:17 10° SSE
Landsat 7 4.3 19:58:25 10° SE 20:02:59 48° ENE 20:07:35 10° N
STARLINK-1224 3.6 19:58:54 10° WSW 20:03:03 88° SSE 20:07:13 10° ENE
STARLINK-1072 4.2 20:00:49 10° WNW 20:04:48 46° SW 20:08:46 10° SE
MOS 1 Rocket 4.4 20:01:59 10° N 20:06:09 43° WNW 20:10:13 10° SW
STARLINK-1099 3.9 20:03:01 10° WNW 20:07:09 67° NNE 20:11:17 10° ESE
Cosmos 1461 3.1 20:03:27 10° SSW 20:07:26 49° ESE 20:11:39 10° NE
STARLINK-1225 3.7 20:03:54 10° WSW 20:08:02 87° NNW 20:12:13 10° ENE
Okean 3 3.8 20:05:24 10° SSW 20:09:42 74° W 20:14:02 10° N
STARLINK-1096 4.3 20:05:50 10° WNW 20:09:46 43° SW 20:13:39 10° SSE
Cosmos 2369 Rocket 3.8 20:07:46 10° SE 20:10:55 15° E 20:14:04 10° ENE
SAR-Lupe-2 4.2 20:07:44 10° NNE 20:11:07 37° E 20:14:29 10° SSE
STARLINK-1104 3.8 20:07:59 10° WNW 20:12:08 71° NNE 20:16:16 10° ESE
STARLINK-1230 3.7 20:08:52 10° WSW 20:13:01 82° NNW 20:17:11 10° ENE
NOSS 2-2 (C) 4.1 20:10:47 10° S 20:13:46 25° ESE 20:16:58 10° ENE
STARLINK-1079 4.4 20:10:50 10° WNW 20:14:43 40° SW 20:18:26 11° SSE
STARLINK-1144 3.8 20:12:58 10° WNW 20:17:08 74° NNE 20:21:16 10° ESE
SL-4 R/B 3.5 20:15:00 10° WNW 20:17:14 19° WSW 20:19:22 10° SSW
Cosmos 2221 Rocket 4.0 20:13:05 10° SSW 20:17:36 68° WNW 20:22:09 10° N
ATLAS 2AS CENTAUR R/B 4.4 20:13:29 10° SE 20:17:54 16° ESE 20:22:20 10° ENE
STARLINK-1243 3.8 20:13:52 10° WSW 20:18:01 78° NNW 20:22:11 10° ENE
SPOT 5 3.8 20:14:18 10° SE 20:19:09 40° ENE 20:24:07 10° N
NOSS 3-2 (A) 4.5 20:12:14 10° NW 20:19:26 57° NE 20:27:34 10° ESE
NOSS 8 (F) 4.1 20:17:48 10° SW 20:21:01 82° SE 20:24:04 10° NE
Meteor 1-13 Rocket 4.3 20:15:36 10° S 20:21:14 89° E 20:27:02 10° NNE
STARLINK-1103 3.7 20:17:56 10° WNW 20:22:06 78° NNE 20:26:13 10° ESE
STARLINK-1236 3.9 20:18:50 10° WSW 20:22:59 74° NNW 20:27:08 10° ENE
ERS-1 Rocket 3.4 20:19:40 11° SE 20:24:18 48° ENE 20:29:09 10° N
STARLINK-1101 3.7 20:22:55 10° WNW 20:27:05 83° NNE 20:31:00 11° ESE
Cosmos 1066 Rocket 4.3 20:23:39 10° S 20:28:54 56° E 20:34:08 10° NNE
USA 245 2.4 20:27:56 12° SSE 20:30:42 81° WSW 20:33:14 10° NNW
USA 238 DEB 4.2 20:24:17 10° NW 20:31:23 61° NE 20:38:25 11° ESE
USA 238 4.2 20:24:23 10° NW 20:31:29 61° NE 20:38:32 11° ESE
STARLINK-1102 3.6 20:27:54 10° WNW 20:32:05 87° NNE 20:35:48 13° ESE
STARLINK-1269 4.0 20:28:50 10° WSW 20:32:58 67° NNW 20:37:07 10° ENE
Cosmos 2278 Rocket 3.6 20:28:31 10° SW 20:33:55 44° NW 20:39:21 10° NNE
Okean 1 Rocket 3.1 20:29:33 10° N 20:34:02 68° E 20:37:54 13° SSE
TSX-5 4.3 20:28:25 10° SSW 20:34:03 82° ESE 20:38:22 10° NNE
Cosmos 1805 3.9 20:30:32 10° N 20:34:16 40° ENE 20:37:06 16° SE
Resurs 01 Rocket 3.0 20:30:11 10° SSW 20:34:18 36° W 20:38:26 10° NNW
Okean 2 Rocket 4.3 20:30:30 10° NNW 20:34:37 39° W 20:38:43 10° SSW
Cosmos 1741 Rocket 4.4 20:29:31 10° NNW 20:34:41 62° WSW 20:39:48 10° S
Nadezhda 4 Rocket 4.1 20:29:20 10° S 20:35:21 61° E 20:41:23 10° NNE
STARLINK-1111 3.6 20:32:53 10° WNW 20:37:03 88° SSW 20:40:34 14° ESE
STARLINK-1200 4.1 20:33:49 10° WSW 20:37:57 64° NNW 20:42:04 10° ENE
Cosmos 1455 Rocket 4.5 20:35:53 10° NNE 20:39:29 25° ENE 20:42:18 14° ESE
STARLINK-1073 3.6 20:37:52 10° WNW 20:42:02 83° SSW 20:45:22 15° ESE
SL-8 R/B 3.7 20:37:20 10° WNW 20:42:08 69° SSW 20:46:17 14° ESE
STARLINK-1192 4.2 20:38:50 10° WSW 20:42:57 61° NNW 20:47:04 10° ENE
Cosmos 371 Rocket 4.4 20:41:04 10° SW 20:45:45 47° WNW 20:50:29 10° NNE
ATLAS 3B CENTAUR R/B 4.3 20:37:23 10° SW 20:46:42 21° S 20:50:57 15° SSE
STARLINK-1121 3.6 20:42:51 10° WNW 20:47:00 78° SSW 20:50:08 17° SE
SL-4 R/B 3.5 20:43:40 10° S 20:47:23 23° SE 20:51:11 10° E
Cosmos 1110 Rocket 3.9 20:42:38 10° SSW 20:47:47 72° ESE 20:52:57 10° NNE
STARLINK-1244 4.3 20:43:50 10° W 20:47:56 58° NNW 20:52:02 10° ENE
Terra 2.3 20:44:22 16° SE 20:47:58 48° ENE 20:52:33 10° N
Spot 2 Rocket 4.0 20:44:17 10° S 20:49:13 57° W 20:54:13 10° NNW
SPOT 1/Viking Rocket 3.6 20:45:17 12° S 20:50:03 78° WSW 20:55:14 10° NNW
Abrixas rocket 2.6 20:47:47 10° W 20:50:33 37° SSW 20:51:50 23° SSE
Cosmos 1842 4.5 20:48:52 18° SE 20:50:47 26° E 20:54:04 10° NNE
CARTOSAT-1 3.6 20:47:49 16° SSE 20:51:11 76° ENE 20:55:31 10° N
STARLINK-1106 3.6 20:47:51 10° WNW 20:52:00 73° SSW 20:54:56 18° SE
NOSS 8 (H) 4.2 20:49:03 10° SW 20:52:11 80° NW 20:55:15 10° NE
STARLINK-1138 4.4 20:48:51 10° W 20:52:56 56° NNW 20:57:02 10° ENE
STARLINK-1234 4.3 20:51:01 10° WNW 20:54:09 39° NNE 20:57:16 10° E
STARLINK-1112 3.6 20:52:48 10° WNW 20:56:56 69° SSW 20:59:41 20° SE
STARLINK-1143 4.4 20:53:50 10° W 20:57:54 54° NNW 21:01:59 10° ENE
STARLINK-1209 4.1 20:57:00 10° WNW 21:00:10 42° NNE 21:03:20 10° E
STARLINK-1128 3.7 20:57:47 10° WNW 21:01:54 64° SSW 21:04:28 22° SE
Cosmos 1331 Rocket 3.9 20:59:24 10° SSW 21:04:34 88° ESE 21:09:48 10° NNE
Aureole 2 Rocket 3.5 21:02:30 10° SW 21:05:26 39° WNW 21:08:14 10° N
STARLINK-1113 3.8 21:02:47 10° WNW 21:06:53 59° SSW 21:09:15 23° SE
Cosmos 1733 3.3 21:03:37 10° N 21:07:25 63° E 21:09:32 24° SSE
Cosmos 1437 Rocket 4.4 21:06:51 10° SW 21:10:17 31° WNW 21:13:45 10° N
COSMOS 2455 4.4 21:09:45 15° ESE 21:11:13 17° ESE 21:14:51 10° ENE
STARLINK-1119 3.8 21:07:48 10° WNW 21:11:52 55° SW 21:14:04 25° SSE
Cosmos 1378 3.1 21:09:41 15° SSW 21:12:39 80° W 21:16:23 10° N
Cosmos 1302 Rocket 4.1 21:10:14 14° S 21:14:41 60° ESE 21:19:55 10° NNE
Cosmos 1486 Rocket 4.4 21:09:34 10° NNW 21:14:49 56° ENE 21:18:13 21° SE
Cosmos 1271 Rocket 4.2 21:14:22 20° ESE 21:15:29 23° E 21:18:36 10° NE
USA 215 4.2 21:09:25 10° E 21:15:38 48° NNE 21:21:51 10° NW
Cosmos 1544 Rocket 4.3 21:12:19 10° N 21:16:25 40° ENE 21:18:39 23° SE
Cosmos 1242 Rocket 3.6 21:15:26 25° SE 21:16:36 31° E 21:19:54 10° NNE
STARLINK-1114 3.9 21:12:46 10° WNW 21:16:49 51° SW 21:18:49 26° SSE
MTI 4.0 21:14:51 10° NNE 21:17:55 49° E 21:18:58 33° SSE
Lacrosse 5 4.1 21:16:19 10° W 21:18:57 14° WSW 21:21:36 10° SSW
STARLINK-60 4.0 21:20:10 27° ESE 21:20:10 27° ESE 21:22:13 10° ENE
Cosmos 1092 Rocket 3.9 21:15:31 14° S 21:20:52 83° E 21:27:03 10° N
STARLINK-1130 (DARKSAT) 4.0 21:17:47 10° WNW 21:21:47 47° SW 21:23:37 27° SSE
NOSS 2-2 (D) 3.4 21:18:27 10° SW 21:22:01 72° NW 21:26:05 10° NE
CENTAUR R/B 3.3 21:16:05 10° NW 21:24:01 73° NE 21:31:08 17° SE
Cosmos 1707 4.1 21:24:35 21° ESE 21:25:36 24° E 21:28:44 10° NE
STARLINK-1084 4.1 21:22:47 10° WNW 21:26:44 44° SW 21:28:24 28° SSE
ATLAS 3B R/B 3.6 21:20:43 10° NW 21:27:07 43° NE 21:33:42 10° ESE
SL-27 R/B 2.4 21:24:25 10° NNW 21:28:02 80° ENE 21:29:28 34° SSE
NOSS 3-2 (C) 4.1 21:21:48 10° NW 21:29:16 82° NE 21:35:37 20° SE
Cosmos 1766 3.8 21:26:30 10° NNW 21:30:24 54° W 21:32:47 22° SSW
Cosmos 1726 4.0 21:28:41 10° NNE 21:31:27 19° ENE 21:32:50 16° E
STARLINK-1098 4.2 21:27:47 10° WNW 21:31:42 41° SW 21:33:11 29° S
Cosmos 1867 4.2 21:28:51 10° NNW 21:34:12 51° NE 21:38:07 18° ESE
COSMOS 2487 4.4 21:32:51 10° N 21:35:28 20° ENE 21:37:03 15° E
STARLINK-1123 4.3 21:32:47 10° WNW 21:36:38 38° SW 21:37:57 29° S
Cosmos 1943 Rocket 2.2 21:32:23 10° SSW 21:37:56 87° WNW 21:43:36 10° NNE
NOSS 3-4 (A) 3.9 21:36:32 24° SSE 21:39:29 38° ESE 21:45:12 10° NE
NOSS 3-4 (C) 3.9 21:36:40 24° SSE 21:39:35 38° ESE 21:45:18 10° NE
Cosmos 1428 Rocket 4.5 21:36:33 20° S 21:41:09 81° E 21:47:28 10° N
STARLINK-1097 4.5 21:37:49 10° WNW 21:41:37 35° SW 21:42:45 29° S
Cosmos 2082 Rocket 4.5 21:39:48 10° WNW 21:42:46 14° W 21:45:42 10° SW
SeaSat 1 3.3 21:38:44 10° NE 21:43:09 32° ESE 21:44:34 27° SE
EO 1 Del DPAF 4.0 21:40:13 10° NNE 21:43:43 34° E 21:44:29 31° SE
Cosmos 1975 Rocket 3.4 21:44:36 19° SSW 21:47:40 64° W 21:52:04 10° N
STARLINK-1212 3.3 21:46:20 10° WNW 21:49:26 58° NNE 21:50:46 29° E
STARLINK-1105 3.3 21:46:49 10° WNW 21:49:54 58° NNE 21:51:13 29° E
STARLINK-1247 3.3 21:47:41 10° WNW 21:50:47 59° NNE 21:52:06 30° E
Cosmos 292 Rocket 3.7 21:48:20 24° SSW 21:51:15 76° ESE 21:56:07 10° NNE
STARLINK-1227 3.3 21:48:12 10° WNW 21:51:16 59° NNE 21:52:32 30° E
Meteor 2-10 4.4 21:46:24 10° N 21:51:18 48° ENE 21:53:43 27° SE
BREEZE-M DEB (TANK) 3.5 21:37:22 10° WSW 21:51:36 87° SSE 21:55:19 10° ENE
STARLINK-1226 3.3 21:49:03 10° WNW 21:52:09 60° NNE 21:53:24 31° E
BREEZE-M DEB (TANK) 3.0 21:48:35 10° W 21:52:30 74° N 21:56:21 10° E
STARLINK-1215 3.3 21:49:56 10° WNW 21:53:03 61° NNE 21:54:17 32° E
Cosmos 2369 Rocket 2.2 21:49:04 13° SSW 21:54:07 90° NW 21:59:49 10° NNE
S3M 4.2 21:48:36 10° N 21:54:43 61° ENE 21:58:11 27° SSE
STARLINK-1217 3.2 21:51:45 10° WNW 21:54:51 63° NNE 21:56:00 34° E
STARLINK-1229 3.2 21:52:40 10° WNW 21:55:46 63° NNE 21:56:54 34° E
STARLINK-1270 3.2 21:53:33 10° WNW 21:56:40 64° NNE 21:57:45 35° E
SPOT 5 4.3 21:53:31 15° SSW 21:57:15 33° W 22:02:05 10° NNW
Aureole 3 Rocket 4.4 21:52:13 10° N 21:58:26 87° W 22:03:54 24° S
STARLINK-1189 3.1 21:55:21 10° WNW 21:58:28 66° NNE 21:59:29 37° E
STARLINK-1188 3.1 21:56:15 10° WNW 21:59:23 67° NNE 22:00:22 38° E
ATLAS CENTAUR R/B 2.1 21:59:35 33° SE 22:00:00 34° ESE 22:03:46 10° NE
STARLINK-1187 2.9 21:57:21 10° WNW 22:00:28 74° NNE 22:01:14 46° E
Cosmos 1340 Rocket 3.7 21:57:17 10° N 22:01:08 39° ENE 22:02:31 29° ESE
STARLINK-1191 3.0 21:58:42 10° WNW 22:01:48 69° NNE 22:02:39 43° E
STARLINK-1221 3.0 21:59:40 10° WNW 22:02:45 70° NNE 22:03:34 44° E
Aureole 3 4.4 22:00:19 10° NNE 22:02:56 22° ENE 22:03:24 22° E
STARLINK-1222 3.0 22:00:30 10° WNW 22:03:36 71° NNE 22:04:23 45° E
NOSS 7 (A) 4.4 22:03:59 61° S 22:04:22 73° SE 22:07:18 10° NE
Cosmos 1025 Rocket 3.0 22:02:58 37° SSE 22:04:30 67° E 22:08:48 10° NNE
STARLINK-1214 3.0 22:01:24 10° WNW 22:04:30 72° NNE 22:05:15 47° E
Thor Agena Rocket 3.6 21:59:19 10° NNE 22:04:37 67° ESE 22:07:12 30° S
Cosmos 2026 Rocket 4.3 22:00:23 16° SSW 22:05:24 65° WNW 22:11:45 10° N
EXPRESS MD2 4.3 22:01:42 10° W 22:05:41 77° N 22:14:10 10° E
STARLINK-1198 4.5 22:02:03 10° WNW 22:06:06 49° NNE 22:10:08 10° E
ATLAS 2AS CENTAUR R/B 3.0 22:00:30 14° SSW 22:07:33 66° ESE 22:15:26 10° NE
Cosmos 1656 Rocket 3.7 22:04:50 28° S 22:07:46 62° ESE 22:13:16 10° NNE
BREEZE M DEB (TANK) 2.1 22:04:50 10° W 22:07:58 66° N 22:08:33 42° ENE
Cosmos 1553 Rocket 4.0 22:01:56 10° N 22:08:16 83° W 22:11:43 28° S
Cosmos 1953 2.5 22:05:35 10° N 22:09:33 57° ENE 22:10:41 40° SE
BREEZE-M DEB (TANK) 4.0 21:56:56 10° WNW 22:09:48 67° SSW 22:11:56 31° SE
STARLINK-1228 3.0 22:06:51 10° WNW 22:10:22 83° SSW 22:11:08 52° SE
Cosmos 1470 3.0 22:06:47 10° NNW 22:10:36 61° W 22:11:51 38° SSW
STARLINK-1199 4.4 22:07:03 10° WNW 22:11:07 51° NNE 22:15:10 10° E
APEX 4.2 22:06:47 15° SSW 22:12:19 88° WNW 22:17:38 10° NNE
STARLINK-1235 2.8 22:09:34 10° WNW 22:12:49 84° SSW 22:13:12 66° SE
Cosmos 2292 Rocket 3.9 22:13:24 33° ESE 22:13:43 34° E 22:16:42 10° NNE
Cosmos 968 Rocket 3.6 22:10:14 10° NNW 22:15:20 61° WSW 22:17:31 33° S
STARLINK-1210 4.4 22:12:02 10° WNW 22:16:06 52° NNE 22:20:06 10° E
Cosmos 1455 Rocket 4.2 22:13:27 10° NNW 22:17:24 35° W 22:19:25 22° SW
Cosmos 1655 Rocket 4.0 22:15:01 29° S 22:18:23 76° E 22:24:40 10° NNE
SL-4 R/B 2.6 22:20:18 24° NE 22:20:18 24° NE 22:21:35 10° N
STARLINK-1219 4.3 22:17:00 10° WNW 22:21:05 54° NNE 22:24:52 12° E
ATLAS 5 CENTAUR R/B 1.4 22:21:46 49° S 22:22:23 60° SE 22:24:41 10° NE
Cosmos 1758 3.9 22:20:09 10° NNW 22:24:06 51° W 22:25:25 35° SSW
STARLINK-52 4.4 22:26:27 26° E 22:26:27 26° E 22:28:05 10° ENE
Terra 3.6 22:23:15 14° SW 22:25:58 22° W 22:29:42 10° NW
STARLINK-1211 4.2 22:22:00 10° WNW 22:26:06 57° NNE 22:29:40 13° E
SL-4 R/B 2.3 22:21:50 10° WSW 22:26:39 79° SSE 22:31:30 10° ENE
Cosmos 2228 4.0 22:23:16 10° N 22:27:14 36° ENE 22:28:36 28° ESE
STARLINK-1234 3.2 22:27:21 10° WNW 22:30:16 55° WSW 22:30:16 55° WSW
STARLINK-1245 4.1 22:26:58 10° WNW 22:31:05 59° NNE 22:34:26 15° E
In-Cosmos 22 4.1 22:30:05 36° S 22:32:13 68° E 22:37:29 10° NNE
Cosmos 1503 Rocket 4.3 22:30:16 10° NNW 22:35:29 58° WSW 22:37:35 34° S
STARLINK-1233 4.0 22:31:56 10° WNW 22:36:04 62° NNE 22:39:12 17° E
Cosmos 2266 Rocket 3.9 22:33:43 32° S 22:36:39 77° E 22:42:42 10° NNE
STARLINK-1209 3.6 22:33:32 10° WNW 22:36:13 44° WSW 22:36:13 44° WSW
STARLINK-1204 3.9 22:36:55 10° WNW 22:41:04 65° NNE 22:43:59 18° E
SJ 16-02 3.9 22:40:43 10° NNE 22:43:13 15° NE 22:45:43 10° E
STARLINK-1238 3.9 22:41:56 10° WNW 22:46:04 68° NNE 22:48:47 20° ESE
Cosmos 1536 Rocket 4.1 22:45:44 30° SW 22:47:31 50° WNW 22:51:48 10° N
Meteor 2-15 Rocket 4.5 22:41:51 10° N 22:48:02 76° E 22:50:55 33° SSE
Cosmos 1674 2.7 22:48:20 53° SE 22:48:49 59° E 22:52:33 10° NNE
Helios 1B rocket 4.4 22:46:53 10° NE 22:49:31 16° E 22:50:09 16° ESE
STARLINK-1201 3.8 22:46:54 10° WNW 22:51:03 72° NNE 22:53:33 23° ESE
Cosmos 1271 Rocket 4.3 22:49:29 20° WSW 22:51:19 30° WNW 22:54:51 10° N
STARLINK-60 3.7 22:52:21 11° W 22:55:21 52° NNW 22:58:28 10° ENE
STARLINK-1206 3.7 22:51:54 10° WNW 22:56:03 75° NNE 22:58:21 25° ESE
Cosmos 883 Rocket 4.4 22:50:00 10° N 22:56:09 79° W 22:58:57 34° S
COSMOS 2455 2.8 22:52:50 27° SSW 22:56:17 87° ESE 23:02:22 10° NE
Cosmos 2219 4.3 22:52:41 10° NNW 22:58:02 40° NE 23:02:18 15° ESE
USA 215 3.2 22:52:57 16° SE 22:58:22 88° SW 23:04:58 10° NW
STARLINK-1205 3.6 22:56:51 10° WNW 23:01:01 80° NNE 23:03:07 28° ESE
Cosmos 1707 4.3 22:59:44 22° WSW 23:01:20 29° WNW 23:04:47 10° N
Cosmos 2297 Rocket 3.5 22:57:03 10° NNW 23:02:16 36° NE 23:07:00 12° ESE
Helios 1A 3.0 23:01:35 46° SE 23:02:44 71° ENE 23:06:55 10° N
Lacrosse 4 Rocket 4.2 23:02:51 10° N 23:05:38 16° NE 23:08:22 10° ENE
STARLINK-1218 3.6 23:01:51 10° WNW 23:06:01 84° NNE 23:07:55 31° ESE
Cosmos 1726 3.2 23:03:22 10° NNW 23:06:45 33° W 23:07:20 31° WSW
Cosmos 1174 3.8 23:06:36 44° WSW 23:07:24 59° NW 23:11:11 10° NNE
ALOS 2 2.8 23:07:47 43° SSW 23:08:54 57° W 23:13:14 10° NNW
Timation 2 Rocket 3.9 23:03:27 10° NNW 23:09:49 88° ENE 23:12:54 32° SSE
Cosmos 2058 Rocket 3.5 23:06:11 10° N 23:10:34 55° ENE 23:11:58 38° SE
COSMOS 2487 3.5 23:07:29 10° NW 23:10:32 32° WSW 23:10:32 32° WSW
STARLINK-1369 4.4 23:11:47 33° ESE 23:11:47 33° ESE 23:14:23 10° ENE
STARLINK-1254 3.5 23:06:50 10° WNW 23:10:59 88° NNE 23:12:41 35° ESE
STARLINK-1372 4.2 23:15:07 36° ESE 23:15:07 36° ESE 23:17:53 10° ENE
CENTAUR R/B 3.9 23:07:13 10° NW 23:14:32 37° WSW 23:18:17 26° SSW
STARLINK-1231 3.5 23:11:48 10° WNW 23:15:57 87° SSW 23:17:27 39° ESE
Meteor 2-5 Rocket 3.7 23:14:12 38° S 23:16:22 73° E 23:22:00 10° NNE
Cosmos 1867 4.5 23:12:47 10° NW 23:17:36 32° WSW 23:18:45 30° SW
STARLINK-1378 4.0 23:18:28 40° ESE 23:18:28 40° ESE 23:21:24 10° ENE
ATLAS 3B R/B 2.8 23:11:25 10° NW 23:18:04 58° WSW 23:21:09 33° S
SL-14 R/B 3.7 23:19:11 44° ESE 23:19:42 47° E 23:23:25 10° NNE
FALCON 9 DEB 3.0 23:20:07 79° WSW 23:20:19 90° NNE 23:23:46 10° ENE
Cosmos 1606 Rocket 3.7 23:16:18 10° NNW 23:20:36 62° W 23:21:36 47° SSW
SeaSat 1 3.4 23:16:05 10° NNE 23:20:46 44° NW 23:24:20 16° WSW
STARLINK-1232 3.5 23:16:48 10° WNW 23:20:57 82° SSW 23:22:15 43° SE
STARLINK-1379 3.9 23:21:51 43° ESE 23:21:51 43° ESE 23:24:56 10° ENE
STARLINK-1329 3.8 23:23:14 45° ESE 23:23:14 45° ESE 23:26:24 10° ENE
Meteor 2-21 4.5 23:20:59 35° S 23:23:43 73° E 23:29:54 10° NNE
Cosmos 2098 Rocket 4.4 23:20:07 30° SSW 23:24:04 75° W 23:31:36 10° N
STARLINK-29 3.5 23:24:02 33° W 23:25:13 56° NNW 23:28:24 10° ENE
STARLINK-1208 3.4 23:21:45 10° WNW 23:25:55 77° SSW 23:27:00 47° SE
STARLINK-1362 3.7 23:26:40 49° ESE 23:26:40 49° ESE 23:29:59 10° ENE
STARLINK-1225 4.5 23:24:01 10° WNW 23:28:04 50° NNE 23:32:08 10° E
ATLAS CENTAUR R/B 2.3 23:26:07 10° NW 23:28:14 40° NE 23:32:03 10° ESE
STARLINK-1373 3.5 23:30:05 54° SE 23:30:05 54° SE 23:33:35 10° ENE
NOSS 3-4 (A) 4.2 23:24:19 10° WSW 23:30:11 52° NW 23:36:30 10° NE
NOSS 3-4 (C) 4.1 23:24:24 10° WSW 23:30:16 52° NW 23:36:37 10° NE
RESURS DK-1 2.3 23:29:48 49° SW 23:30:53 80° WNW 23:35:02 10° NNE
STARLINK-1271 3.5 23:26:46 10° WNW 23:30:55 72° SSW 23:31:49 51° SE
STARLINK-1365 3.4 23:31:12 58° SE 23:31:12 58° SE 23:34:51 10° ENE
STARLINK-1230 4.4 23:29:00 10° WNW 23:33:04 52° NNE 23:37:07 10° E
STARLINK-1390 3.4 23:33:35 58° SE 23:33:35 58° SE 23:37:13 10° ENE
Cosmos 2315 Rocket 4.4 23:28:15 10° NNW 23:34:14 52° W 23:36:59 31° SSW
Cosmos 1697 Rocket 4.4 23:32:47 16° SE 23:34:46 19° E 23:38:39 10° NE
Cosmos 2084 3.4 23:33:37 45° SW 23:34:56 85° SE 23:39:27 10° NE
STARLINK-1154 3.5 23:31:45 10° WNW 23:35:52 67° SSW 23:36:36 54° SSE
BREEZE-M R/B 3.6 23:31:45 20° SW 23:36:24 54° SSE 23:40:09 10° ENE
Cosmos 1626 2.0 23:36:01 65° SSE 23:36:28 79° E 23:40:12 10° NNE
STARLINK-1243 4.4 23:34:00 10° WNW 23:38:04 54° NNE 23:42:09 10° E
ATLAS CENTAUR R/B 2.8 23:35:42 15° WSW 23:38:53 36° NW 23:42:40 10° NNE
Okean 1-7 Rocket 3.5 23:37:39 48° S 23:38:54 90° N 23:43:28 10° N
Cosmos 2369 Rocket 4.4 23:34:46 10° W 23:38:57 21° NW 23:43:09 10° N
Cosmos 2227 Rocket 2.8 23:33:45 10° NNW 23:39:21 55° ENE 23:43:29 18° SE
STARLINK-1197 3.5 23:36:43 10° WNW 23:40:50 63° SSW 23:41:21 56° S
Cosmos 1908 4.4 23:38:40 10° NNW 23:42:01 30° W 23:42:29 29° WSW
CZ-4 R/B 3.9 23:37:38 10° NNE 23:42:23 63° ESE 23:43:50 41° SSE
Nadezhda 2 Rocket 4.5 23:39:44 34° SSW 23:42:34 76° W 23:48:45 10° N
STARLINK-1236 4.3 23:38:58 10° WNW 23:43:03 56° NNE 23:47:09 10° E
STARLINK-1198 3.6 23:41:42 10° WNW 23:45:47 58° SW 23:46:07 56° S
Cosmos 1602 Rocket 4.4 23:47:23 30° SE 23:48:40 38° E 23:52:41 10° NNE
Landsat 4 4.1 23:46:35 10° N 23:50:13 54° WNW 23:51:00 44° WSW
STARLINK-1199 3.6 23:46:43 10° WNW 23:50:46 54° SW 23:50:55 54° SSW
Meteor 2-21 Rocket 4.4 23:50:06 34° S 23:52:58 89° W 23:59:12 10° N
STARLINK-1269 4.1 23:48:56 10° WNW 23:53:04 61° NNE 23:57:10 10° ESE
STARLINK-1210 3.7 23:51:42 10° WNW 23:55:41 50° SW 23:55:41 50° SW
